Time,TemperatureF,DewpointF,PressureIn,WindDirection,WindDirectionDegrees,WindSpeedMPH,WindSpeedGustMPH,Humidity,HourlyPrecipIn,Conditions,Clouds,dailyrainin,SolarRadiationWatts/m^2,SoftwareType,DateUTC
2013-02-04 00:01:00,45.0,34.0,-100.00,NE,48,5.0,10.0,65,0.00,,,0.00,0.000000,,2013-02-04 08:01:00,
2013-02-04 00:11:00,45.0,34.0,-100.00,NE,48,5.0,10.0,65,0.00,,,0.00,0.000000,,2013-02-04 08:11:00,
2013-02-04 00:42:00,43.0,30.0,-100.00,NE,49,5.0,10.0,59,0.00,,,-99.99,0.000000,,2013-02-04 08:42:00,
2013-02-04 00:52:00,43.0,30.0,-100.00,NE,49,5.0,10.0,59,0.00,,,-99.99,0.000000,,2013-02-04 08:52:00,
2013-02-04 01:01:00,43.0,30.0,-100.00,NE,49,5.0,10.0,59,0.00,,,-99.99,0.000000,,2013-02-04 09:01:00,
2013-02-04 01:11:00,43.0,30.0,-100.00,NE,49,5.0,10.0,59,0.00,,,-99.99,0.000000,,2013-02-04 09:11:00,
2013-02-04 01:42:00,43.0,28.0,-100.00,NNE,33,6.0,11.0,54,0.00,,,0.00,0.000000,,2013-02-04 09:42:00,
2013-02-04 01:52:00,43.0,28.0,-100.00,NNE,33,6.0,11.0,54,0.00,,,0.00,0.000000,,2013-02-04 09:52:00,
2013-02-04 02:01:00,43.0,28.0,-100.00,NNE,33,6.0,11.0,54,0.00,,,0.00,0.000000,,2013-02-04 10:01:00,
2013-02-04 02:11:00,43.0,28.0,-100.00,NNE,33,6.0,11.0,54,0.00,,,0.00,0.000000,,2013-02-04 10:11:00,
2013-02-04 02:42:00,43.0,27.0,-100.00,NNE,33,6.0,10.0,52,0.00,,,0.00,0.000000,,2013-02-04 10:42:00,
2013-02-04 02:52:00,43.0,27.0,-100.00,NNE,33,6.0,10.0,52,0.00,,,0.00,0.000000,,2013-02-04 10:52:00,
2013-02-04 03:01:00,43.0,27.0,-100.00,NNE,33,6.0,10.0,52,0.00,,,0.00,0.000000,,2013-02-04 11:01:00,
2013-02-04 03:11:00,43.0,27.0,-100.00,NNE,33,6.0,10.0,52,0.00,,,0.00,0.000000,,2013-02-04 11:11:00,
2013-02-04 03:33:00,42.0,25.0,-100.00,NE,53,5.0,10.0,50,0.00,,,0.00,0.000000,,2013-02-04 11:33:00,
2013-02-04 03:42:00,42.0,25.0,-100.00,NE,53,5.0,10.0,50,0.00,,,0.00,0.000000,,2013-02-04 11:42:00,
2013-02-04 03:52:00,42.0,25.0,-100.00,NE,53,5.0,10.0,50,0.00,,,0.00,0.000000,,2013-02-04 11:52:00,
2013-02-04 04:02:00,42.0,25.0,-100.00,NE,53,5.0,10.0,50,0.00,,,0.00,0.000000,,2013-02-04 12:02:00,
2013-02-04 04:12:00,42.0,25.0,-100.00,NE,53,5.0,10.0,50,0.00,,,0.00,0.000000,,2013-02-04 12:12:00,
2013-02-04 04:33:00,42.0,24.0,-100.00,NE,48,5.0,8.0,48,0.00,,,0.00,0.000000,,2013-02-04 12:33:00,
2013-02-04 04:42:00,42.0,24.0,-100.00,NE,48,5.0,8.0,48,0.00,,,0.00,0.000000,,2013-02-04 12:42:00,
2013-02-04 04:53:00,42.0,24.0,-100.00,NE,48,5.0,8.0,48,0.00,,,0.00,0.000000,,2013-02-04 12:53:00,
2013-02-04 05:02:00,42.0,24.0,-100.00,NE,48,5.0,8.0,48,0.00,,,0.00,0.000000,,2013-02-04 13:02:00,
2013-02-04 05:11:00,42.0,24.0,-100.00,NE,48,5.0,8.0,48,0.00,,,0.00,0.000000,,2013-02-04 13:11:00,
2013-02-04 05:33:00,42.0,23.0,-100.00,ENE,60,4.0,11.0,47,0.00,,,0.00,0.000000,,2013-02-04 13:33:00,
2013-02-04 05:42:00,42.0,23.0,-100.00,ENE,60,4.0,11.0,47,0.00,,,0.00,0.000000,,2013-02-04 13:42:00,
2013-02-04 05:52:00,42.0,23.0,-100.00,ENE,60,4.0,11.0,47,0.00,,,0.00,0.000000,,2013-02-04 13:52:00,
2013-02-04 06:02:00,42.0,23.0,-100.00,ENE,60,4.0,11.0,47,0.00,,,0.00,0.000000,,2013-02-04 14:02:00,
2013-02-04 06:11:00,42.0,23.0,-100.00,ENE,60,4.0,11.0,47,0.00,,,0.00,0.000000,,2013-02-04 14:11:00,
2013-02-04 06:33:00,43.0,23.0,-100.00,NE,39,4.0,9.0,45,0.00,,,0.00,0.000000,,2013-02-04 14:33:00,
2013-02-04 06:42:00,43.0,23.0,-100.00,NE,39,4.0,9.0,45,0.00,,,0.00,0.000000,,2013-02-04 14:42:00,
2013-02-04 06:52:00,43.0,23.0,-100.00,NE,39,4.0,9.0,45,0.00,,,0.00,0.000000,,2013-02-04 14:52:00,
2013-02-04 07:03:00,43.0,23.0,-100.00,NE,39,4.0,9.0,45,0.00,,,0.00,0.000000,,2013-02-04 15:03:00,
2013-02-04 07:11:00,43.0,23.0,-100.00,NE,39,4.0,9.0,45,0.00,,,0.00,0.000000,,2013-02-04 15:11:00,
2013-02-04 07:33:00,42.0,23.0,-100.00,NNE,30,5.0,7.0,47,0.00,,,0.00,1.000000,,2013-02-04 15:33:00,
2013-02-04 07:43:00,42.0,23.0,-100.00,NNE,30,5.0,7.0,47,0.00,,,0.00,1.000000,,2013-02-04 15:43:00,
2013-02-04 07:52:00,42.0,23.0,-100.00,NNE,30,5.0,7.0,47,0.00,,,0.00,1.000000,,2013-02-04 15:52:00,
2013-02-04 08:02:00,42.0,23.0,-100.00,NNE,30,5.0,7.0,47,0.00,,,0.00,1.000000,,2013-02-04 16:02:00,
2013-02-04 08:11:00,42.0,23.0,-100.00,NNE,30,5.0,7.0,47,0.00,,,0.00,1.000000,,2013-02-04 16:11:00,
2013-02-04 09:42:00,51.0,27.0,-100.00,NE,50,4.0,8.0,39,-99.99,,,0.00,223.000000,,2013-02-04 17:42:00,
2013-02-04 09:52:00,51.0,27.0,-100.00,NE,50,4.0,8.0,39,-99.99,,,0.00,223.000000,,2013-02-04 17:52:00,
2013-02-04 10:11:00,51.0,27.0,-100.00,NE,50,4.0,8.0,39,-99.99,,,0.00,223.000000,,2013-02-04 18:11:00,
2013-02-04 10:32:00,58.0,31.0,-100.00,NNE,24,2.0,6.0,35,0.00,,,0.00,384.000000,,2013-02-04 18:32:00,
2013-02-04 10:42:00,58.0,31.0,-100.00,NNE,24,2.0,6.0,35,0.00,,,0.00,384.000000,,2013-02-04 18:42:00,
2013-02-04 10:52:00,58.0,31.0,-100.00,NNE,24,2.0,6.0,35,0.00,,,0.00,384.000000,,2013-02-04 18:52:00,
2013-02-04 11:01:00,58.0,31.0,-100.00,NNE,24,2.0,6.0,35,0.00,,,0.00,384.000000,,2013-02-04 19:01:00,
2013-02-04 11:11:00,58.0,31.0,-100.00,NNE,24,2.0,6.0,35,0.00,,,0.00,384.000000,,2013-02-04 19:11:00,
2013-02-04 11:42:00,62.0,31.0,-100.00,SW,229,3.0,5.0,31,0.00,,,0.00,502.000000,,2013-02-04 19:42:00,
2013-02-04 11:52:00,62.0,31.0,-100.00,SW,229,3.0,5.0,31,0.00,,,0.00,502.000000,,2013-02-04 19:52:00,
2013-02-04 12:02:00,62.0,31.0,-100.00,SW,229,3.0,5.0,31,0.00,,,0.00,502.000000,,2013-02-04 20:02:00,
2013-02-04 12:11:00,62.0,31.0,-100.00,SW,229,3.0,5.0,31,0.00,,,0.00,502.000000,,2013-02-04 20:11:00,
2013-02-04 13:32:00,65.0,35.0,-100.00,SW,227,5.0,9.0,33,-99.99,,,0.00,546.000000,,2013-02-04 21:32:00,
2013-02-04 13:43:00,65.0,35.0,-100.00,SW,227,5.0,9.0,33,-99.99,,,0.00,546.000000,,2013-02-04 21:43:00,
2013-02-04 13:52:00,65.0,35.0,-100.00,SW,227,5.0,9.0,33,-99.99,,,0.00,546.000000,,2013-02-04 21:52:00,
2013-02-04 14:02:00,65.0,35.0,-100.00,SW,227,5.0,9.0,33,-99.99,,,0.00,546.000000,,2013-02-04 22:02:00,
2013-02-04 14:11:00,65.0,35.0,-100.00,SW,227,5.0,9.0,33,-99.99,,,0.00,546.000000,,2013-02-04 22:11:00,
2013-02-04 14:33:00,62.0,39.0,-100.00,SW,232,7.0,13.0,42,0.00,,,0.00,480.000000,,2013-02-04 22:33:00,
2013-02-04 14:42:00,62.0,39.0,-100.00,SW,232,7.0,13.0,42,0.00,,,0.00,480.000000,,2013-02-04 22:42:00,
2013-02-04 14:52:00,62.0,39.0,-100.00,SW,232,7.0,13.0,42,0.00,,,0.00,480.000000,,2013-02-04 22:52:00,
2013-02-04 15:01:00,62.0,39.0,-100.00,SW,232,7.0,13.0,42,0.00,,,0.00,480.000000,,2013-02-04 23:01:00,
2013-02-04 15:11:00,62.0,39.0,-100.00,SW,232,7.0,13.0,42,0.00,,,0.00,480.000000,,2013-02-04 23:11:00,
2013-02-04 15:32:00,61.0,40.0,-100.00,SW,230,4.0,10.0,46,0.00,,,0.00,341.000000,,2013-02-04 23:32:00,
2013-02-04 15:42:00,61.0,40.0,-100.00,SW,230,4.0,10.0,46,0.00,,,0.00,341.000000,,2013-02-04 23:42:00,
2013-02-04 15:52:00,61.0,40.0,-100.00,SW,230,4.0,10.0,46,0.00,,,0.00,341.000000,,2013-02-04 23:52:00,
2013-02-04 16:01:00,61.0,40.0,-100.00,SW,230,4.0,10.0,46,0.00,,,0.00,341.000000,,2013-02-05 00:01:00,
2013-02-04 16:11:00,61.0,40.0,-100.00,SW,230,4.0,10.0,46,0.00,,,0.00,341.000000,,2013-02-05 00:11:00,
2013-02-04 16:42:00,61.0,40.0,-100.00,WSW,249,5.0,7.0,46,0.00,,,0.00,143.000000,,2013-02-05 00:42:00,
2013-02-04 16:52:00,61.0,40.0,-100.00,WSW,249,5.0,7.0,46,0.00,,,0.00,143.000000,,2013-02-05 00:52:00,
2013-02-04 17:01:00,61.0,40.0,-100.00,WSW,249,5.0,7.0,46,0.00,,,0.00,143.000000,,2013-02-05 01:01:00,
2013-02-04 17:11:00,61.0,40.0,-100.00,WSW,249,5.0,7.0,46,0.00,,,0.00,143.000000,,2013-02-05 01:11:00,
2013-02-04 17:42:00,55.0,40.0,-100.00,SW,227,1.0,10.0,57,0.00,,,0.00,61.000000,,2013-02-05 01:42:00,
2013-02-04 17:52:00,55.0,40.0,-100.00,SW,227,1.0,10.0,57,0.00,,,0.00,61.000000,,2013-02-05 01:52:00,
2013-02-04 18:01:00,55.0,40.0,-100.00,SW,227,1.0,10.0,57,0.00,,,0.00,61.000000,,2013-02-05 02:01:00,
2013-02-04 18:11:00,55.0,40.0,-100.00,SW,227,1.0,10.0,57,0.00,,,0.00,61.000000,,2013-02-05 02:11:00,
2013-02-04 18:32:00,52.0,40.0,-100.00,ESE,107,1.0,2.0,63,0.00,,,0.00,2.000000,,2013-02-05 02:32:00,
2013-02-04 18:42:00,52.0,40.0,-100.00,ESE,107,1.0,2.0,63,0.00,,,0.00,2.000000,,2013-02-05 02:42:00,
2013-02-04 18:52:00,52.0,40.0,-100.00,ESE,107,1.0,2.0,63,0.00,,,0.00,2.000000,,2013-02-05 02:52:00,
2013-02-04 19:01:00,52.0,40.0,-100.00,ESE,107,1.0,2.0,63,0.00,,,0.00,2.000000,,2013-02-05 03:01:00,
2013-02-04 19:11:00,52.0,40.0,-100.00,ESE,107,1.0,2.0,63,0.00,,,0.00,2.000000,,2013-02-05 03:11:00,
2013-02-04 19:32:00,50.0,39.0,-100.00,NE,52,3.0,6.0,67,0.00,,,0.00,0.000000,,2013-02-05 03:32:00,
2013-02-04 19:42:00,50.0,39.0,-100.00,NE,52,3.0,6.0,67,0.00,,,0.00,0.000000,,2013-02-05 03:42:00,
2013-02-04 19:52:00,50.0,39.0,-100.00,NE,52,3.0,6.0,67,0.00,,,0.00,0.000000,,2013-02-05 03:52:00,
2013-02-04 20:01:00,50.0,39.0,-100.00,NE,52,3.0,6.0,67,0.00,,,0.00,0.000000,,2013-02-05 04:01:00,
2013-02-04 20:11:00,50.0,39.0,-100.00,NE,52,3.0,6.0,67,0.00,,,0.00,0.000000,,2013-02-05 04:11:00,
2013-02-04 20:32:00,48.0,39.0,-100.00,NE,43,5.0,7.0,71,0.00,,,0.00,0.000000,,2013-02-05 04:32:00,
2013-02-04 20:42:00,48.0,39.0,-100.00,NE,43,5.0,7.0,71,0.00,,,0.00,0.000000,,2013-02-05 04:42:00,
2013-02-04 20:52:00,48.0,39.0,-100.00,NE,43,5.0,7.0,71,0.00,,,0.00,0.000000,,2013-02-05 04:52:00,
2013-02-04 21:02:00,48.0,39.0,-100.00,NE,43,5.0,7.0,71,0.00,,,0.00,0.000000,,2013-02-05 05:02:00,
2013-02-04 21:11:00,48.0,39.0,-100.00,NE,43,5.0,7.0,71,0.00,,,0.00,0.000000,,2013-02-05 05:11:00,
2013-02-04 21:32:00,48.0,39.0,-100.00,NE,34,5.0,8.0,70,0.00,,,0.00,0.000000,,2013-02-05 05:32:00,
2013-02-04 21:42:00,48.0,39.0,-100.00,NE,34,5.0,8.0,70,0.00,,,0.00,0.000000,,2013-02-05 05:42:00,
2013-02-04 21:52:00,48.0,39.0,-100.00,NE,34,5.0,8.0,70,0.00,,,0.00,0.000000,,2013-02-05 05:52:00,
2013-02-04 22:01:00,48.0,39.0,-100.00,NE,34,5.0,8.0,70,0.00,,,0.00,0.000000,,2013-02-05 06:01:00,
2013-02-04 22:11:00,48.0,39.0,-100.00,NE,34,5.0,8.0,70,0.00,,,0.00,0.000000,,2013-02-05 06:11:00,
2013-02-04 22:32:00,47.0,38.0,-100.00,NE,41,4.0,6.0,70,0.00,,,0.00,0.000000,,2013-02-05 06:32:00,
2013-02-04 22:42:00,47.0,38.0,-100.00,NE,41,4.0,6.0,70,0.00,,,0.00,0.000000,,2013-02-05 06:42:00,
2013-02-04 22:52:00,47.0,38.0,-100.00,NE,41,4.0,6.0,70,0.00,,,0.00,0.000000,,2013-02-05 06:52:00,
2013-02-04 23:01:00,47.0,38.0,-100.00,NE,41,4.0,6.0,70,0.00,,,0.00,0.000000,,2013-02-05 07:01:00,
2013-02-04 23:11:00,47.0,38.0,-100.00,NE,41,4.0,6.0,70,0.00,,,0.00,0.000000,,2013-02-05 07:11:00,
2013-02-04 23:32:00,45.0,37.0,-100.00,NNE,31,6.0,8.0,73,0.00,,,0.00,0.000000,,2013-02-05 07:32:00,
2013-02-04 23:42:00,45.0,37.0,-100.00,NNE,31,6.0,8.0,73,0.00,,,0.00,0.000000,,2013-02-05 07:42:00,
2013-02-04 23:52:00,45.0,37.0,-100.00,NNE,31,6.0,8.0,73,0.00,,,0.00,0.000000,,2013-02-05 07:52:00,